Showing default

NANOFF A, 58810

Orbit data source: Space-Track

NANOFF A, 58810 is a payload satellite owned by TUB (DE) in SSO that was launched on Fri, 01 Dec 2023 UTC via an FALCON 9 launch vehicle from the Air Force Western Test Range (AFWTR). Payload-class satellites include a variety of spacecraft equipped with specific instruments for various scientific and technological missions. These include communications satellites like Starlink; space stations such as the ISS; scientific satellites like the Hubble; Earth observation satellites from companies like Planet Labs, Umbra, and HawkEye 360; GPS; miniature CubeSats for education and research; and military/defense satellites.

Loading next visibility...
Identifier
58810, 2023-185T
Orbit
SSO
Country
Flag of DEDE / GER
Related business
Manufacturer
TUB
Mission
Operational Amateur Technology
Bus & Motor
CUBESAT 2U, Unknown motor
Mass
2.7 kg wet, 2.7 kg dry
Launch date (UTC)
2023-12-01 (2 years ago)
Launch vehicle
FALCON 9
Launch site
Air Force Western Test Range (AFWTR)
Object type
Payload
Rocket body
Debris
Shape & HBR
Box + 2 Pan, 0.3 m
Radar Cross Section
0.046 m², Small (<0.1 m²)

Expand to show TLE details & history
Last TLE update: 23 hours ago

TLE from 23 hours ago
0 NANOFF A
1 58810U 23185T   25305.63153752  .00004558  00000-0  28311-3 0  9998
2 58810  97.5578  11.2238 0010920  19.4169 340.7474 15.10124480 98679
Epoch: 2025-11-01T15:09Z
TLE epoch observation values (Epoch: 2025-11-01T15:09:24.841Z)
Latitude
-0.00006°
Longitude
102.71146°
Altitude
531.764 km
Speed
7.601 km/s
True Right ascension
00h 44m 53s
True Declination
0° 00' 00"
Sunlit
Object was in full shadow at epoch
Visualization orbit readout
Latitude
Unknown
Longitude
Unknown
Altitude
Unknown
Speed
Unknown
Apparent Right ascension
Unknown
Apparent Declination
Unknown
Sunlit
N/A
Visualization observer readout
Local Sidereal Time
10:08:21
Azimuth
Unknown
Elevation
Unknown
Doppler factor
Unknown
Orbital elements
Apogee altitude
540.352 km
Perigee altitude
525.259 km
Semi-major axis
6,910.943 km
Eccentricity
0.00109
Inclination
97.5578°
RAAN
11.2238°
Arg. of periapsis
19.4169°
True anomaly
340.70609°
Mean anomaly
340.7474°
Eccentric anomaly
340.72675°
Mean motion
3.77779 °/min
Orbital period
95.29 mins
BSTAR
0.00028311
Loading maneuver chart data...
Computing Atmospheric mass density...
Loading historical data...
Loading historical data...
Loading historical data...
Loading historical data...
Loading historical data...
Loading historical data...
Loading historical data...

Documentation

Showing up to 5 results
|